Flag for U.S.A. Weather past 2 weeks in Dover, Delaware, U.S.A.

Now
80 °F

Broken clouds.


Feels Like: 85 °F
Forecast: 67 / 82 °F
Wind: 9 mph from East

Location: Dover Air Force Base

Current Time: Aug 21, 2014 at 2:03:41 PM

Latest Report: Aug 21, 2014 at 12:58 PM


Visibility: 10 mi

Pressure: 30.04 "Hg

Humidity: 81%

Dew point: 74 °F

Location of DoverLocation

Historic Weather in Dover — Graph

°F

Dover temperature yesterday

Maximum temperature yesterday: 81 °F (at 2:58 PM)
Minimum temperature yesterday: 64 °F (at 4:58 AM)
Average temperature yesterday: 73 °F

Past Weeks' High & Low Weather Summary

 TemperatureHumidityPressure
High84 °F (Aug 10, 3:58 PM)100% (Aug 7, 6:58 AM)30.15 "Hg (Aug 7, 6:58 AM)
Low60 °F (Aug 15, 3:58 AM)39% (Aug 10, 1:58 PM)29.72 "Hg (Aug 13, 4:58 AM)
Average73 °F76%29.96 "Hg
* Reported Aug 6 12:58 PM — Aug 21 12:58 PM, Dover, Weather by CustomWeather, © 2014

Note: Actual official high and low records may vary slightly from our data, if they occured in-between our weather recording intervals... More about our weather records

Advertising

Dover weather history for previous 24 hours

 ConditionsComfort  
Time TempWeatherWind HumidityBarometerVisibility
12:58 PM
Aug 21
80 °FBroken clouds.9 mph81%30.04 "Hg10 mi
11:58 AM78 °FOvercast.8 mph84%30.05 "Hg10 mi
10:58 AM78 °FMore clouds than sun.2 mph84%30.05 "Hg10 mi
9:58 AM78 °FPartly sunny.7 mph83%30.06 "Hg10 mi
8:58 AM74 °FOvercast.7 mph87%30.05 "Hg10 mi
7:58 AM71 °FSunny.3 mph100%30.04 "Hg10 mi
6:58 AM66 °FClear.5 mph100%30.03 "Hg10 mi
5:58 AM66 °FClear.No wind100%30.02 "Hg10 mi
4:58 AM65 °FClear.1 mph98%30.01 "Hg10 mi
3:58 AM67 °FClear.2 mph94%30.00 "Hg10 mi
2:58 AM67 °FOvercast.3 mph95%30.02 "Hg10 mi
1:58 AM67 °FPassing clouds.No wind94%30.01 "Hg10 mi
12:58 AM70 °FMostly cloudy.3 mph88%30.03 "Hg10 mi
11:58 PM
Aug 20
71 °FOvercast.6 mph89%30.04 "Hg10 mi
10:58 PM71 °FPassing clouds.3 mph88%30.02 "Hg10 mi
9:58 PM72 °FPartly cloudy.7 mph84%29.98 "Hg10 mi
8:58 PM72 °FPassing clouds.9 mph85%29.99 "Hg10 mi
7:58 PM72 °FPassing clouds.6 mph83%29.99 "Hg10 mi
6:58 PM75 °FScattered clouds.9 mph76%30.00 "Hg10 mi
5:58 PM79 °FPartly sunny.8 mph65%30.00 "Hg10 mi
4:58 PM81 °FSunny.6 mph42%29.99 "Hg10 mi
3:58 PM81 °FSunny.8 mph55%29.98 "Hg10 mi
2:58 PM81 °FSunny.8 mph59%29.98 "Hg10 mi
Weather by CustomWeather, © 2014

See weather overviewHow to use our weather pages